TimePDT,TemperatureF,Dew PointF,Humidity,Sea Level PressureIn,VisibilityMPH,Wind Direction,Wind SpeedMPH,Gust SpeedMPH,PrecipitationIn,Events,Conditions,WindDirDegrees,DateUTC
12:53 AM,36.0,32.0,86,30.22,10.0,West,9.2,-,N/A,,Clear,280,2013-10-17 07:53:00
1:53 AM,37.0,33.1,86,30.23,10.0,WNW,8.1,-,N/A,,Clear,290,2013-10-17 08:53:00
2:53 AM,36.0,32.0,86,30.23,10.0,WNW,8.1,-,N/A,,Clear,290,2013-10-17 09:53:00
3:53 AM,34.0,30.9,89,30.23,10.0,West,5.8,-,N/A,,Clear,270,2013-10-17 10:53:00
4:53 AM,36.0,32.0,86,30.24,10.0,WNW,4.6,-,N/A,,Clear,300,2013-10-17 11:53:00
5:53 AM,32.0,28.9,88,30.25,10.0,West,6.9,-,N/A,,Clear,280,2013-10-17 12:53:00
6:53 AM,32.0,28.9,88,30.29,10.0,West,8.1,-,N/A,,Clear,270,2013-10-17 13:53:00
7:53 AM,34.0,30.9,89,30.30,10.0,WNW,8.1,-,N/A,,Clear,290,2013-10-17 14:53:00
8:53 AM,42.1,35.1,76,30.31,10.0,WSW,5.8,-,N/A,,Clear,250,2013-10-17 15:53:00
9:53 AM,51.1,37.9,61,30.31,10.0,WNW,3.5,-,N/A,,Clear,300,2013-10-17 16:53:00
10:53 AM,55.9,37.9,51,30.30,10.0,Calm,Calm,-,N/A,,Clear,0,2013-10-17 17:53:00
11:53 AM,60.1,37.9,44,30.29,10.0,Calm,Calm,-,N/A,,Clear,0,2013-10-17 18:53:00
12:53 PM,63.0,37.0,38,30.27,10.0,Calm,Calm,-,N/A,,Clear,0,2013-10-17 19:53:00
1:53 PM,64.9,35.1,33,30.26,10.0,SE,3.5,-,N/A,,Clear,140,2013-10-17 20:53:00
2:53 PM,64.9,35.1,33,30.25,10.0,Calm,Calm,-,N/A,,Clear,0,2013-10-17 21:53:00
3:53 PM,66.0,35.1,32,30.25,10.0,Calm,Calm,-,N/A,,Clear,0,2013-10-17 22:53:00
4:53 PM,64.9,35.1,33,30.24,10.0,South,3.5,-,N/A,,Clear,170,2013-10-17 23:53:00
5:53 PM,60.1,37.9,44,30.24,10.0,Calm,Calm,-,N/A,,Clear,0,2013-10-18 00:53:00
6:53 PM,48.9,35.1,59,30.26,10.0,West,4.6,-,N/A,,Clear,280,2013-10-18 01:53:00
7:53 PM,48.0,37.0,66,30.27,10.0,West,3.5,-,N/A,,Clear,270,2013-10-18 02:53:00
8:53 PM,39.9,33.1,77,30.28,10.0,West,8.1,-,N/A,,Clear,280,2013-10-18 03:53:00
9:53 PM,42.1,35.1,76,30.29,10.0,WNW,5.8,-,N/A,,Clear,290,2013-10-18 04:53:00
10:53 PM,37.0,33.1,86,30.29,10.0,WNW,5.8,-,N/A,,Clear,290,2013-10-18 05:53:00
11:53 PM,37.0,33.1,86,30.29,10.0,WNW,5.8,-,N/A,,Clear,300,2013-10-18 06:53:00